GW5385 Weather Reports


Display with metric or nautical units.
time (UTC)temp
F
wind
direction
speed
MPH
gust
MPH
rain 1hr
in
rain 24hr
in
rain mn
in
humidity
%
barometer
mb
20260510140031 47 101 0.0 2.0 0.00 0.00 0.00 73 1019.6
20260510134529 46 124 1.0 2.0 0.00 0.00 0.00 77 1019.8
20260510133030 44 292 0.0 0.0 0.00 0.00 0.00 80 1019.6
20260510131527 40 292 0.0 0.0 0.00 0.00 0.00 84 1019.7
20260510130025 37 292 0.0 1.0 0.00 0.00 0.00 85 1019.8
20260510124524 36 292 0.0 0.0 0.00 0.00 0.00 85 1019.8
20260510123024 35 292 0.0 0.0 0.00 0.00 0.00 85 1019.8
20260510121521 34 292 0.0 0.0 0.00 0.00 0.00 85 1019.9
20260510120018 35 292 0.0 1.0 0.00 0.00 0.00 85 1020.0
20260510114516 35 292 0.0 0.0 0.00 0.00 0.00 85 1020.0
20260510113020 35 295 0.0 0.0 0.00 0.00 0.00 85 1020.1
20260510111512 35 295 0.0 1.0 0.00 0.00 0.00 84 1020.1
20260510110015 36 298 0.0 1.0 0.00 0.00 0.00 85 1020.2
20260510104506 36 299 0.0 0.0 0.00 0.00 0.00 83 1020.3
20260510103003 36 293 0.0 0.0 0.00 0.00 0.00 82 1020.3
20260510101501 37 293 0.0 0.0 0.00 0.00 0.00 83 1020.3
20260510100058 37 286 0.0 0.0 0.00 0.00 0.00 84 1020.5
20260510094612 37 293 0.0 0.0 0.00 0.00 0.00 82 1020.3
20260510093053 38 282 0.0 0.0 0.00 0.00 0.00 81 1020.4
20260510091550 39 295 0.0 0.0 0.00 0.00 0.00 80 1020.3
20260510090045 40 295 0.0 0.0 0.00 0.00 0.00 78 1020.5
20260510084557 42 6 0.0 4.0 0.00 0.00 0.00 77 1020.6
20260510083053 41 353 0.0 0.0 0.00 0.00 0.00 79 1020.7
20260510081538 42 15 0.0 0.0 0.00 0.00 0.00 77 1020.7
20260510080034 43 15 0.0 0.0 0.00 0.00 0.00 74 1020.7
20260510074537 45 1 2.0 4.0 0.00 0.00 0.00 73 1020.7
20260510073045 46 352 3.0 4.0 0.00 0.00 0.00 73 1020.8
20260510071532 46 6 3.0 5.0 0.00 0.00 0.00 72 1020.9
20260510070058 46 35 4.0 5.0 0.00 0.00 0.00 74 1020.9
20260510064555 44 46 2.0 4.0 0.00 0.00 0.00 75 1020.9
20260510063053 43 33 0.0 2.0 0.00 0.00 0.00 76 1020.9
20260510061601 43 288 0.0 0.0 0.00 0.00 0.00 70 1020.9
20260510060048 45 288 0.0 0.0 0.00 0.00 0.00 75 1020.9
20260510054545 44 288 0.0 0.0 0.00 0.00 0.00 72 1020.8
20260510053049 45 234 0.0 0.0 0.00 0.00 0.00 68 1020.8
20260510051542 48 229 0.0 0.0 0.00 0.00 0.00 68 1020.8
20260510050039 48 229 0.0 1.0 0.00 0.00 0.00 68 1020.8
20260510044537 48 342 1.0 3.0 0.00 0.00 0.00 69 1020.8
20260510043033 49 283 0.0 1.0 0.00 0.00 0.00 65 1020.7
20260510041536 50 177 0.0 0.0 0.00 0.00 0.00 64 1020.6
20260510040030 50 160 1.0 4.0 0.00 0.00 0.00 65 1020.4
20260510034529 50 292 0.0 2.0 0.00 0.00 0.00 60 1020.4
20260510033026 52 124 0.0 3.0 0.00 0.00 0.00 59 1020.0
20260510031524 54 124 0.0 2.0 0.00 0.00 0.00 53 1019.8
20260510030032 55 105 2.0 3.0 0.00 0.00 0.00 50 1019.6
20260510024532 58 201 0.0 1.0 0.00 0.00 0.00 47 1019.4
20260510023022 59 211 1.0 3.0 0.00 0.00 0.00 46 1019.3
20260510021553 60 203 1.0 2.0 0.00 0.00 0.00 47 1019.3
20260510020052 62 212 0.0 2.0 0.00 0.00 0.00 45 1019.3
20260510014552 63 181 1.0 2.0 0.00 0.00 0.00 43 1019.2
20260510013101 63 224 1.0 3.0 0.00 0.00 0.00 42 1019.3
20260510011549 64 250 0.0 5.0 0.00 0.00 0.00 41 1019.3
20260510010048 65 195 2.0 6.0 0.00 0.00 0.00 40 1019.4
20260510004545 65 252 5.0 8.0 0.00 0.00 0.00 40 1019.4
20260510003049 65 228 0.0 6.0 0.00 0.00 0.00 41 1019.4
20260510001544 64 225 1.0 5.0 0.00 0.00 0.00 41 1019.4
20260510000044 64 262 2.0 8.0 0.00 0.00 0.00 40 1019.4
20260509234542 65 246 6.0 11.0 0.00 0.00 0.00 39 1019.3
20260509233041 65 261 1.0 8.0 0.00 0.00 0.00 39 1019.2
20260509231543 65 269 4.0 11.0 0.00 0.00 0.00 38 1019.2
20260509230042 65 236 4.0 8.0 0.00 0.00 0.00 38 1019.4
20260509224538 65 293 3.0 6.0 0.00 0.00 0.00 38 1019.4
20260509223036 65 235 2.0 7.0 0.00 0.00 0.00 37 1019.4
20260509221535 65 130 1.0 5.0 0.00 0.00 0.00 39 1019.6
20260509220037 64 254 2.0 6.0 0.00 0.00 0.00 38 1019.7
20260509214533 63 317 0.0 2.0 0.00 0.00 0.00 39 1019.8
20260509213030 64 103 2.0 4.0 0.00 0.00 0.00 38 1019.8
20260509211529 64 195 1.0 6.0 0.00 0.00 0.00 38 1019.8
20260509210030 64 249 0.0 3.0 0.00 0.00 0.00 38 1019.9
20260509204526 63 273 1.0 5.0 0.00 0.00 0.00 39 1020.0
20260509203027 63 283 3.0 5.0 0.00 0.00 0.00 38 1019.9
20260509201524 64 312 3.0 6.0 0.00 0.00 0.00 37 1019.7
20260509200024 64 357 1.0 6.0 0.00 0.00 0.00 37 1019.7
20260509194524 64 184 2.0 10.0 0.00 0.00 0.00 37 1019.8
20260509193021 64 260 2.0 8.0 0.00 0.00 0.00 37 1019.8
20260509191519 64 217 1.0 5.0 0.00 0.00 0.00 36 1019.9
20260509190017 64 178 1.0 8.0 0.00 0.00 0.00 37 1019.9
20260509184520 63 233 3.0 6.0 0.00 0.00 0.00 38 1019.9
20260509183015 63 231 2.0 7.0 0.00 0.00 0.00 37 1020.0
20260509181512 63 216 5.0 11.0 0.00 0.00 0.00 37 1019.8
20260509180009 63 127 3.0 7.0 0.00 0.00 0.00 37 1019.7
20260509174507 63 210 1.0 4.0 0.00 0.00 0.00 38 1019.7
20260509173004 62 221 2.0 5.0 0.00 0.00 0.00 38 1019.6
20260509171502 61 162 0.0 4.0 0.00 0.00 0.00 40 1019.6
20260509170002 61 229 1.0 7.0 0.00 0.00 0.00 40 1019.6
20260509164558 61 243 3.0 7.0 0.00 0.00 0.00 39 1019.6
20260509163110 61 257 0.0 4.0 0.00 0.00 0.00 39 1019.5
20260509161601 61 79 2.0 4.0 0.00 0.00 0.00 38 1019.4
20260509160054 61 185 0.0 3.0 0.00 0.00 0.00 39 1019.2
20260509154549 61 345 1.0 5.0 0.00 0.00 0.00 39 1019.1
20260509153044 60 16 0.0 3.0 0.00 0.00 0.00 43 1019.1
20260509151541 58 24 0.0 4.0 0.00 0.00 0.00 44 1018.9
20260509150037 57 31 2.0 4.0 0.00 0.00 0.00 46 1018.8
20260509144538 56 23 3.0 6.0 0.00 0.00 0.00 47 1018.7
20260509143039 56 14 4.0 7.0 0.00 0.00 0.00 49 1018.6
20260509141538 55 43 2.0 5.0 0.00 0.00 0.00 49 1018.4